WGN187 KATL-KRDU

Flight info

Callsign WGN187
Flight time 0h 55m
Altitude 37000
Route GAIRY2 IRQ PYRES DMSTR2
Aircraft MD11/H-SDE1E2E3FGHIJ2J3J4J5M1RWXY/LB1D1

Departure

Time 2026-05-07 16:14
Airport Hartsfield Jackson Atlanta International Airport (KATL)

Arrival

Time 2026-05-07 17:10
Airport Raleigh-Durham International Airport (KRDU)
Time Latitude Longitude Altitude Speed Heading
2026-05-07 15:39 33.62814 -84.42757 997 ft 0 kts 90°
2026-05-07 15:57 33.62814 -84.42780 997 ft 3 kts 90°
2026-05-07 15:58 33.62814 -84.42797 998 ft 1 kts 87°
2026-05-07 15:58 33.62813 -84.42808 998 ft 0 kts 77°
2026-05-07 15:58 33.62810 -84.42818 998 ft 1 kts 60°
2026-05-07 15:58 33.62806 -84.42826 998 ft 1 kts 44°
2026-05-07 15:59 33.62800 -84.42831 997 ft 1 kts 29°
2026-05-07 15:59 33.62794 -84.42835 997 ft 1 kts 14°
2026-05-07 15:59 33.62786 -84.42837 997 ft 0 kts
2026-05-07 15:59 33.62781 -84.42837 997 ft 0 kts 360°
2026-05-07 16:01 33.62782 -84.42837 997 ft 0 kts 360°
2026-05-07 16:02 33.62797 -84.42837 997 ft 2 kts 360°
2026-05-07 16:02 33.62814 -84.42837 998 ft 2 kts 360°
2026-05-07 16:02 33.62849 -84.42837 999 ft 6 kts
2026-05-07 16:02 33.62889 -84.42817 999 ft 6 kts 50°
2026-05-07 16:03 33.62907 -84.42755 999 ft 9 kts 77°
2026-05-07 16:03 33.62908 -84.42675 997 ft 10 kts 93°
2026-05-07 16:03 33.62906 -84.42575 997 ft 13 kts 91°
2026-05-07 16:03 33.62904 -84.42452 995 ft 16 kts 94°
2026-05-07 16:04 33.62898 -84.42336 992 ft 7 kts 92°
2026-05-07 16:04 33.62907 -84.42268 991 ft 8 kts 50°
2026-05-07 16:04 33.62962 -84.42248 991 ft 0 kts
2026-05-07 16:05 33.62965 -84.42248 991 ft 2 kts
2026-05-07 16:05 33.62997 -84.42245 991 ft 6 kts
2026-05-07 16:06 33.63033 -84.42245 991 ft 5 kts 359°
2026-05-07 16:06 33.63062 -84.42229 991 ft 5 kts 59°
2026-05-07 16:06 33.63072 -84.42168 990 ft 10 kts 85°
2026-05-07 16:06 33.63073 -84.42064 986 ft 14 kts 92°
2026-05-07 16:07 33.63071 -84.41965 982 ft 8 kts 90°
2026-05-07 16:07 33.63093 -84.41882 978 ft 12 kts 48°
2026-05-07 16:07 33.63181 -84.41857 978 ft 12 kts 360°
2026-05-07 16:07 33.63261 -84.41836 978 ft 12 kts 14°
2026-05-07 16:08 33.63325 -84.41815 978 ft 5 kts 15°
2026-05-07 16:08 33.63341 -84.41811 978 ft 0 kts 15°
2026-05-07 16:10 33.63363 -84.41803 977 ft 9 kts 15°
2026-05-07 16:10 33.63459 -84.41775 974 ft 17 kts
2026-05-07 16:10 33.63552 -84.41762 972 ft 10 kts 20°
2026-05-07 16:10 33.63580 -84.41704 971 ft 7 kts 88°
2026-05-07 16:11 33.63581 -84.41605 970 ft 15 kts 90°
2026-05-07 16:11 33.63580 -84.41459 967 ft 19 kts 90°
2026-05-07 16:11 33.63581 -84.41285 967 ft 21 kts 90°
2026-05-07 16:11 33.63582 -84.41096 965 ft 24 kts 90°
2026-05-07 16:12 33.63582 -84.40906 960 ft 22 kts 90°
2026-05-07 16:12 33.63581 -84.40798 955 ft 6 kts 91°
2026-05-07 16:12 33.63557 -84.40748 952 ft 8 kts 165°
2026-05-07 16:12 33.63504 -84.40745 952 ft 5 kts 179°
2026-05-07 16:13 33.63487 -84.40754 952 ft 1 kts 225°
2026-05-07 16:13 33.63477 -84.40774 953 ft 6 kts 247°
2026-05-07 16:13 33.63472 -84.40816 956 ft 3 kts 266°
2026-05-07 16:13 33.63472 -84.40909 960 ft 34 kts 271°
2026-05-07 16:14 33.63473 -84.41496 970 ft 103 kts 270°
2026-05-07 16:14 33.63478 -84.42585 1004 ft 157 kts 269°
2026-05-07 16:14 33.63465 -84.43980 1368 ft 171 kts 271°
2026-05-07 16:14 33.63447 -84.45363 2073 ft 167 kts 271°
2026-05-07 16:15 33.63399 -84.46727 2764 ft 168 kts 265°
2026-05-07 16:15 33.63070 -84.48168 3102 ft 191 kts 249°
2026-05-07 16:15 33.62447 -84.49680 3521 ft 216 kts 247°
2026-05-07 16:15 33.61727 -84.51376 4086 ft 238 kts 247°
2026-05-07 16:16 33.60972 -84.53171 4994 ft 249 kts 247°
2026-05-07 16:16 33.60195 -84.55033 6089 ft 254 kts 248°
2026-05-07 16:16 33.59226 -84.56773 7258 ft 259 kts 231°
2026-05-07 16:16 33.57801 -84.58058 8395 ft 269 kts 212°
2026-05-07 16:17 33.55981 -84.58653 9501 ft 281 kts 194°
2026-05-07 16:17 33.54007 -84.58748 10562 ft 288 kts 188°
2026-05-07 16:17 33.52006 -84.58665 11554 ft 294 kts 187°
2026-05-07 16:17 33.49948 -84.58446 12481 ft 305 kts 178°
2026-05-07 16:18 33.47944 -84.57550 13430 ft 324 kts 158°
2026-05-07 16:18 33.46186 -84.55737 14143 ft 354 kts 137°
2026-05-07 16:18 33.44864 -84.53027 14351 ft 396 kts 115°
2026-05-07 16:18 33.44282 -84.49696 14585 ft 431 kts 95°
2026-05-07 16:19 33.44495 -84.45972 14723 ft 462 kts 81°
2026-05-07 16:19 33.45052 -84.42121 15129 ft 482 kts 81°
2026-05-07 16:19 33.45470 -84.38077 15851 ft 494 kts 86°
2026-05-07 16:19 33.45636 -84.33945 16579 ft 504 kts 89°
2026-05-07 16:20 33.45820 -84.29778 17372 ft 513 kts 86°
2026-05-07 16:20 33.46121 -84.25481 18128 ft 522 kts 85°
2026-05-07 16:20 33.46482 -84.21147 18945 ft 528 kts 84°
2026-05-07 16:20 33.46856 -84.16796 19764 ft 534 kts 84°
2026-05-07 16:21 33.47209 -84.12370 20563 ft 539 kts 85°
2026-05-07 16:21 33.47549 -84.07874 21340 ft 544 kts 85°
2026-05-07 16:21 33.47889 -84.03378 22063 ft 551 kts 85°
2026-05-07 16:21 33.48231 -83.98837 22790 ft 556 kts 85°
2026-05-07 16:22 33.48593 -83.94209 23482 ft 562 kts 85°
2026-05-07 16:22 33.48960 -83.89528 24139 ft 569 kts 85°
2026-05-07 16:22 33.49331 -83.84763 24823 ft 575 kts 85°
2026-05-07 16:22 33.49703 -83.80017 25450 ft 581 kts 85°
2026-05-07 16:23 33.50083 -83.75225 26104 ft 586 kts 85°
2026-05-07 16:23 33.50474 -83.70328 26765 ft 591 kts 85°
2026-05-07 16:23 33.50862 -83.65456 27619 ft 591 kts 85°
2026-05-07 16:23 33.51349 -83.60574 28471 ft 591 kts 82°
2026-05-07 16:24 33.51987 -83.55738 29277 ft 592 kts 79°
2026-05-07 16:24 33.52694 -83.50893 30129 ft 592 kts 80°
2026-05-07 16:24 33.53392 -83.46029 30606 ft 593 kts 80°
2026-05-07 16:24 33.54059 -83.41172 30852 ft 589 kts 81°
2026-05-07 16:25 33.54696 -83.36367 30949 ft 590 kts 81°
2026-05-07 16:25 33.55963 -83.26694 30936 ft 587 kts 81°
2026-05-07 16:26 33.57229 -83.17107 30933 ft 587 kts 81°
2026-05-07 16:26 33.58533 -83.07404 30930 ft 588 kts 81°
2026-05-07 16:27 33.59840 -82.97753 30929 ft 587 kts 81°
2026-05-07 16:27 33.61150 -82.88156 30929 ft 587 kts 81°
2026-05-07 16:28 33.62479 -82.78523 30925 ft 586 kts 81°
2026-05-07 16:28 33.63808 -82.68869 30934 ft 586 kts 81°
2026-05-07 16:29 33.65125 -82.59261 30927 ft 585 kts 81°
2026-05-07 16:29 33.66328 -82.49632 30921 ft 584 kts 81°
2026-05-07 16:30 33.67562 -82.40087 30921 ft 584 kts 81°
2026-05-07 16:30 33.68811 -82.30460 30893 ft 583 kts 82°
2026-05-07 16:31 33.70060 -82.20931 30890 ft 581 kts 80°
2026-05-07 16:31 33.71858 -82.11501 30901 ft 580 kts 73°
2026-05-07 16:32 33.74243 -82.02251 30897 ft 579 kts 71°
2026-05-07 16:32 33.76594 -81.93010 30895 ft 579 kts 72°
2026-05-07 16:33 33.78861 -81.83834 30898 ft 578 kts 72°
2026-05-07 16:33 33.81155 -81.74563 30903 ft 579 kts 72°
2026-05-07 16:34 33.83453 -81.65360 30914 ft 579 kts 72°
2026-05-07 16:34 33.85894 -81.56156 30896 ft 576 kts 66°
2026-05-07 16:35 33.89464 -81.47593 30909 ft 571 kts 54°
2026-05-07 16:35 33.93638 -81.39521 30897 ft 571 kts 54°
2026-05-07 16:36 33.97760 -81.31331 30880 ft 572 kts 55°
2026-05-07 16:36 34.01811 -81.23077 30878 ft 572 kts 56°
2026-05-07 16:37 34.05855 -81.14837 30875 ft 572 kts 55°
2026-05-07 16:37 34.09913 -81.06592 30891 ft 572 kts 56°
2026-05-07 16:38 34.13987 -80.98353 30889 ft 574 kts 55°
2026-05-07 16:38 34.18069 -80.90108 30888 ft 574 kts 55°
2026-05-07 16:39 34.22145 -80.81876 30891 ft 574 kts 54°
2026-05-07 16:39 34.26258 -80.73631 30891 ft 574 kts 54°
2026-05-07 16:40 34.30343 -80.65410 30892 ft 575 kts 55°
2026-05-07 16:40 34.34434 -80.57113 30888 ft 577 kts 55°
2026-05-07 16:41 34.38448 -80.48739 30885 ft 577 kts 55°
2026-05-07 16:41 34.42489 -80.40338 30779 ft 576 kts 55°
2026-05-07 16:41 34.44517 -80.36151 29936 ft 581 kts 55°
2026-05-07 16:42 34.46545 -80.31953 29111 ft 581 kts 56°
2026-05-07 16:42 34.48577 -80.27756 28311 ft 580 kts 56°
2026-05-07 16:42 34.50618 -80.23537 27528 ft 578 kts 56°
2026-05-07 16:42 34.52626 -80.19399 26746 ft 576 kts 56°
2026-05-07 16:43 34.54675 -80.15178 25960 ft 574 kts 57°
2026-05-07 16:43 34.56679 -80.11042 25193 ft 571 kts 56°
2026-05-07 16:43 34.58687 -80.06912 24429 ft 567 kts 57°
2026-05-07 16:43 34.60674 -80.02822 23667 ft 564 kts 57°
2026-05-07 16:44 34.62639 -79.98770 22921 ft 560 kts 57°
2026-05-07 16:44 34.64616 -79.94714 22200 ft 555 kts 57°
2026-05-07 16:44 34.66581 -79.90745 21487 ft 549 kts 55°
2026-05-07 16:44 34.68848 -79.87116 21132 ft 530 kts 45°
2026-05-07 16:45 34.71446 -79.84042 20420 ft 505 kts 34°
2026-05-07 16:45 34.74186 -79.81553 19983 ft 478 kts 29°
2026-05-07 16:45 34.76850 -79.79344 19730 ft 452 kts 28°
2026-05-07 16:45 34.79406 -79.77251 19632 ft 437 kts 28°
2026-05-07 16:46 34.81876 -79.75178 19456 ft 433 kts 29°
2026-05-07 16:46 34.84312 -79.73060 19336 ft 428 kts 30°
2026-05-07 16:46 34.86714 -79.70926 19245 ft 425 kts 31°
2026-05-07 16:46 34.89073 -79.68810 19156 ft 422 kts 31°
2026-05-07 16:47 34.91449 -79.66683 19063 ft 420 kts 30°
2026-05-07 16:47 34.93804 -79.64582 18975 ft 419 kts 30°
2026-05-07 16:47 34.96169 -79.62483 18832 ft 421 kts 30°
2026-05-07 16:47 34.98512 -79.60400 18534 ft 422 kts 30°
2026-05-07 16:48 35.00867 -79.58305 18245 ft 419 kts 30°
2026-05-07 16:48 35.03212 -79.56224 17981 ft 416 kts 30°
2026-05-07 16:48 35.05548 -79.54151 17706 ft 413 kts 30°
2026-05-07 16:48 35.07893 -79.52079 17450 ft 411 kts 30°
2026-05-07 16:49 35.10233 -79.50122 17179 ft 405 kts 22°
2026-05-07 16:49 35.12741 -79.48753 16952 ft 390 kts
2026-05-07 16:49 35.15342 -79.48126 16719 ft 378 kts 357°
2026-05-07 16:49 35.17943 -79.47866 16475 ft 374 kts 354°
2026-05-07 16:50 35.20555 -79.47668 16252 ft 374 kts 354°
2026-05-07 16:50 35.23131 -79.47437 16022 ft 373 kts 356°
2026-05-07 16:50 35.25739 -79.47128 15801 ft 372 kts 357°
2026-05-07 16:50 35.28290 -79.46785 15581 ft 371 kts 358°
2026-05-07 16:51 35.30874 -79.46423 15352 ft 370 kts 358°
2026-05-07 16:51 35.33411 -79.46004 15120 ft 374 kts
2026-05-07 16:51 35.35915 -79.45019 14921 ft 383 kts 18°
2026-05-07 16:51 35.38204 -79.43304 14636 ft 391 kts 31°
2026-05-07 16:52 35.40295 -79.41155 14338 ft 390 kts 37°
2026-05-07 16:52 35.42284 -79.38920 14059 ft 389 kts 37°
2026-05-07 16:52 35.44301 -79.36686 13807 ft 387 kts 36°
2026-05-07 16:52 35.46321 -79.34561 13533 ft 384 kts 35°
2026-05-07 16:53 35.48367 -79.32488 13283 ft 382 kts 34°
2026-05-07 16:53 35.50419 -79.30443 13034 ft 379 kts 34°
2026-05-07 16:53 35.52480 -79.28392 12778 ft 378 kts 34°
2026-05-07 16:53 35.54494 -79.26358 12546 ft 378 kts 34°
2026-05-07 16:54 35.56525 -79.24294 12274 ft 376 kts 34°
2026-05-07 16:54 35.58528 -79.22269 12021 ft 374 kts 34°
2026-05-07 16:54 35.60547 -79.20243 11788 ft 369 kts 34°
2026-05-07 16:54 35.62481 -79.18211 11544 ft 365 kts 38°
2026-05-07 16:55 35.64222 -79.15994 11249 ft 364 kts 46°
2026-05-07 16:55 35.65795 -79.13527 10831 ft 365 kts 51°
2026-05-07 16:55 35.67243 -79.11005 10386 ft 367 kts 52°
2026-05-07 16:55 35.68697 -79.08421 9955 ft 368 kts 51°
2026-05-07 16:56 35.70168 -79.05860 9481 ft 369 kts 51°
2026-05-07 16:56 35.71694 -79.03287 8875 ft 367 kts 50°
2026-05-07 16:56 35.74626 -78.98424 8270 ft 346 kts 51°
2026-05-07 16:57 35.76049 -78.96062 7991 ft 343 kts 51°
2026-05-07 16:57 35.77455 -78.93710 7958 ft 330 kts 51°
2026-05-07 16:57 35.78871 -78.91629 7928 ft 312 kts 38°
2026-05-07 16:57 35.80619 -78.90193 7952 ft 289 kts 17°
2026-05-07 16:58 35.82470 -78.89454 7957 ft 274 kts
2026-05-07 16:58 35.84320 -78.88985 7940 ft 263 kts
2026-05-07 16:58 35.86078 -78.88587 7951 ft 255 kts
2026-05-07 16:58 35.87838 -78.88165 7961 ft 255 kts
2026-05-07 16:59 35.89577 -78.87695 7969 ft 257 kts
2026-05-07 16:59 35.91316 -78.87172 7932 ft 260 kts
2026-05-07 16:59 35.93093 -78.86592 7500 ft 266 kts 12°
2026-05-07 16:59 35.94799 -78.85683 7147 ft 267 kts 30°
2026-05-07 17:00 35.96269 -78.84280 6775 ft 268 kts 41°
2026-05-07 17:00 35.97546 -78.82690 6668 ft 257 kts 44°
2026-05-07 17:00 35.98774 -78.81140 6383 ft 253 kts 44°
2026-05-07 17:00 36.00006 -78.79592 6155 ft 244 kts 44°
2026-05-07 17:01 36.01156 -78.78136 6082 ft 231 kts 44°
2026-05-07 17:01 36.02263 -78.76720 5961 ft 231 kts 44°
2026-05-07 17:01 36.03387 -78.75286 6085 ft 242 kts 44°
2026-05-07 17:01 36.04584 -78.73762 6003 ft 247 kts 45°
2026-05-07 17:02 36.05772 -78.72244 5984 ft 246 kts 45°
2026-05-07 17:02 36.06979 -78.70708 5985 ft 246 kts 44°
2026-05-07 17:02 36.08172 -78.69190 5986 ft 247 kts 44°
2026-05-07 17:02 36.09366 -78.67667 5921 ft 248 kts 44°
2026-05-07 17:03 36.10571 -78.66131 5630 ft 246 kts 44°
2026-05-07 17:03 36.11583 -78.64486 5286 ft 241 kts 68°
2026-05-07 17:03 36.11787 -78.62489 5106 ft 237 kts 100°
2026-05-07 17:03 36.11127 -78.60703 5064 ft 222 kts 133°
2026-05-07 17:04 36.09987 -78.59509 5010 ft 211 kts 150°
2026-05-07 17:04 36.08695 -78.58649 4996 ft 208 kts 157°
2026-05-07 17:04 36.07338 -78.58030 4963 ft 207 kts 174°
2026-05-07 17:04 36.05948 -78.58112 5032 ft 199 kts 200°
2026-05-07 17:05 36.04710 -78.58871 4839 ft 202 kts 217°
2026-05-07 17:05 36.03655 -78.59969 4547 ft 197 kts 226°
2026-05-07 17:05 36.02711 -78.61184 4279 ft 196 kts 229°
2026-05-07 17:05 36.01781 -78.62447 4049 ft 197 kts 229°
2026-05-07 17:06 36.00851 -78.63680 3903 ft 191 kts 227°
2026-05-07 17:06 35.99936 -78.64841 3734 ft 185 kts 226°
2026-05-07 17:06 35.99052 -78.65918 3541 ft 182 kts 225°
2026-05-07 17:06 35.98141 -78.67029 2995 ft 181 kts 224°
2026-05-07 17:07 35.97261 -78.68076 3044 ft 175 kts 225°
2026-05-07 17:07 35.96389 -78.69147 2756 ft 181 kts 225°
2026-05-07 17:07 35.95467 -78.70253 2056 ft 189 kts 221°
2026-05-07 17:07 35.94430 -78.71116 1752 ft 174 kts 212°
2026-05-07 17:08 35.93537 -78.72086 1637 ft 173 kts 231°
2026-05-07 17:08 35.92788 -78.73267 1363 ft 172 kts 234°
2026-05-07 17:08 35.92063 -78.74391 1151 ft 167 kts 231°
2026-05-07 17:08 35.91280 -78.75459 948 ft 166 kts 227°
2026-05-07 17:09 35.90482 -78.76463 731 ft 165 kts 226°
2026-05-07 17:09 35.89661 -78.77460 512 ft 162 kts 225°
2026-05-07 17:09 35.88892 -78.78411 397 ft 148 kts 227°
2026-05-07 17:09 35.88378 -78.79043 394 ft 53 kts 225°
2026-05-07 17:10 35.88208 -78.79257 388 ft 33 kts 224°
2026-05-07 17:10 35.88051 -78.79446 383 ft 21 kts 217°
2026-05-07 17:10 35.87947 -78.79469 384 ft 11 kts 153°
2026-05-07 17:10 35.87933 -78.79402 388 ft 7 kts 56°
2026-05-07 17:11 35.87962 -78.79360 390 ft 5 kts 45°
2026-05-07 17:11 35.87998 -78.79318 391 ft 9 kts 44°
2026-05-07 17:11 35.88057 -78.79247 392 ft 13 kts 44°
2026-05-07 17:11 35.88127 -78.79163 395 ft 14 kts 45°
2026-05-07 17:12 35.88198 -78.79073 396 ft 15 kts 45°
2026-05-07 17:12 35.88276 -78.78979 399 ft 15 kts 44°
2026-05-07 17:12 35.88354 -78.78883 401 ft 16 kts 45°
2026-05-07 17:12 35.88438 -78.78780 403 ft 17 kts 45°
2026-05-07 17:13 35.88527 -78.78669 406 ft 18 kts 45°
2026-05-07 17:13 35.88626 -78.78547 404 ft 21 kts 45°
2026-05-07 17:13 35.88743 -78.78404 402 ft 25 kts 45°
2026-05-07 17:13 35.88859 -78.78259 401 ft 12 kts 45°
2026-05-07 17:14 35.88898 -78.78210 401 ft 4 kts 54°
2026-05-07 17:14 35.88903 -78.78183 401 ft 2 kts 97°
2026-05-07 17:14 35.88880 -78.78155 403 ft 6 kts 183°
2026-05-07 17:14 35.88826 -78.78195 403 ft 13 kts 225°
2026-05-07 17:15 35.88759 -78.78260 403 ft 8 kts 185°
2026-05-07 17:15 35.88730 -78.78233 404 ft 3 kts 90°
2026-05-07 17:15 35.88744 -78.78198 405 ft 10 kts 56°
2026-05-07 17:15 35.88824 -78.78093 405 ft 18 kts 41°
2026-05-07 17:16 35.88914 -78.77967 405 ft 20 kts 65°
2026-05-07 17:16 35.88992 -78.77810 407 ft 18 kts 45°
2026-05-07 17:16 35.89021 -78.77775 407 ft 3 kts 45°
2026-05-07 17:16 35.89027 -78.77754 407 ft 2 kts 109°
2026-05-07 17:17 35.89017 -78.77734 407 ft 3 kts 128°
2026-05-07 17:17 35.89005 -78.77715 407 ft 1 kts 128°
2026-05-07 17:17 35.88998 -78.77702 407 ft 1 kts 133°
2026-05-07 17:17 35.88993 -78.77696 407 ft 1 kts 135°
2026-05-07 17:30 35.89006 -78.77713 406 ft 3 kts 135°
2026-05-07 17:30 35.89016 -78.77724 406 ft 1 kts 138°
2026-05-07 17:30 35.89024 -78.77732 406 ft 0 kts 148°
2026-05-07 17:30 35.89032 -78.77737 406 ft 1 kts 166°
2026-05-07 17:31 35.89039 -78.77738 406 ft 1 kts 182°
2026-05-07 17:31 35.89046 -78.77737 406 ft 0 kts 198°
2026-05-07 17:31 35.89053 -78.77734 406 ft 0 kts 213°
2026-05-07 17:31 35.89058 -78.77729 406 ft 0 kts 224°
2026-05-07 17:32 35.89060 -78.77726 406 ft 0 kts 226°
2026-05-07 17:32 35.89058 -78.77729 406 ft 1 kts 226°
2026-05-07 17:32 35.89049 -78.77741 406 ft 4 kts 226°
2026-05-07 17:33 35.89005 -78.77795 406 ft 11 kts 225°
2026-05-07 17:33 35.88936 -78.77898 405 ft 20 kts 244°
2026-05-07 17:33 35.88845 -78.78069 405 ft 26 kts 225°
2026-05-07 17:33 35.88734 -78.78258 404 ft 28 kts 258°
2026-05-07 17:34 35.88624 -78.78447 406 ft 26 kts 225°
2026-05-07 17:34 35.88400 -78.78735 406 ft 27 kts 221°
2026-05-07 17:34 35.88258 -78.78901 403 ft 28 kts 225°
2026-05-07 17:35 35.88126 -78.79097 397 ft 31 kts 244°
2026-05-07 17:35 35.87997 -78.79324 391 ft 32 kts 225°
2026-05-07 17:35 35.87833 -78.79531 386 ft 34 kts 223°
2026-05-07 17:35 35.87658 -78.79742 381 ft 35 kts 226°
2026-05-07 17:36 35.87479 -78.79961 375 ft 34 kts 225°
2026-05-07 17:36 35.87397 -78.80070 371 ft 12 kts 242°
2026-05-07 17:36 35.87415 -78.80157 368 ft 11 kts 332°
2026-05-07 17:36 35.87492 -78.80151 368 ft 21 kts 38°
2026-05-07 17:37 35.87758 -78.79813 376 ft 88 kts 45°
2026-05-07 17:37 35.88339 -78.79091 392 ft 148 kts 44°
2026-05-07 17:37 35.89179 -78.78050 420 ft 187 kts 44°
2026-05-07 17:37 35.90108 -78.76883 890 ft 187 kts 45°
2026-05-07 17:38 35.90985 -78.75730 1582 ft 182 kts 46°
2026-05-07 17:38 35.91885 -78.74670 2136 ft 180 kts 32°
2026-05-07 17:38 35.93061 -78.74294 2517 ft 179 kts 354°
2026-05-07 17:38 35.94202 -78.74921 2748 ft 188 kts 317°
2026-05-07 17:39 35.94962 -78.76263 3003 ft 196 kts 303°